Regional Weather Roundup
Issued by NWS

Home | Current Version | Previous Version | Text Only | Print | Product List | Glossary On
Versions: 1 2 3 4 5 6 7 8 9 10 11 12 13 14 15 16 17 18 19 20 21 22 23 24 25 26 27 28 29 30 31 32 33 34 35 36 37 38 39 40 41 42 43 44 45 46 47 48 49 50
000
ASUS43 KTOP 221659
RWRKS

WEATHER ROUNDUP FOR KANSAS
NATIONAL WEATHER SERVICE GOODLAND KS
1100 AM CST MON DEC 22 2014

NOTE:  "FAIR" INDICATES FEW OR NO CLOUDS BELOW 12,000 FEET WITH NO
SIGNIFICANT WEATHER AND/OR OBSTRUCTIONS TO VISIBILITY.

KSZ001>006-013>018-027>032-041>047-221800-
NORTHWEST KANSAS

CITY           SKY/WX    TMP DP  RH WIND       PRES   REMARKS
GOODLAND       MOSUNNY   43  28  55 NW24G31   29.70S
HAYS           MOSUNNY   46  30  53 NW20G26   29.63S
HILL CITY      PTSUNNY   46  31  55 NW18G28   29.63F
RUSSELL        PTSUNNY   46  37  71 NW22      29.60R
$$

KSZ061>065-074>080-084>089-221800-
SOUTHWEST KANSAS

CITY           SKY/WX    TMP DP  RH WIND       PRES   REMARKS
DODGE CITY     PTSUNNY   48  30  49 NW18G30   29.69R
ELKHART          N/A     45  24  43 N22         N/A
GARDEN CITY    MOSUNNY   45  29  53 NW25G37   29.70S
GREAT BEND     PTSUNNY   45  36  70 NW18G25   29.63S
LIBERAL        MOSUNNY   48  32  53 NW23G36   29.75S
$$

KSZ066>073-081>083-090>101-221800-
SOUTHEAST KANSAS

CITY           SKY/WX    TMP DP  RH WIND       PRES   REMARKS
CHANUTE        LGT RAIN  47  46  97 S9        29.57F FOG
COFFEYVILLE    CLOUDY    48  47  96 S9        29.57F FOG
HUTCHINSON     PTSUNNY   49  41  74 NW16G23   29.58S
MEDICINE LODGE   N/A     50  38  63 N20G31    29.60F
NEWTON         PTSUNNY   46  39  76 NW17      29.58S
PARSONS        CLOUDY    48  47  96 S8        29.58F FOG
WICHITA INTL   CLOUDY    49  44  83 NW12      29.57F
WICHITA JABRA  CLOUDY    47  44  90 W9        29.57S
WINFIELD       CLOUDY    48  47  96 W9        29.58F FOG
$$

KSZ007>012-019>026-033>040-048>060-102>105-221800-
NORTHEAST KANSAS

CITY           SKY/WX    TMP DP  RH WIND       PRES   REMARKS
CONCORDIA      CLOUDY    43  40  89 NW13      29.54S
EMPORIA        CLOUDY    44  44 100 S9        29.54F
LAWRENCE       CLOUDY    45  43  93 S10       29.54F FOG
MANHATTAN      LGT RAIN  47  45  93 W7        29.52F
OLATHE IND     CLOUDY    43  42  97 S9        29.55F FOG
OLATHE EXE     CLOUDY    43  42  97 S7        29.54F FOG
SALINA         CLOUDY    45  39  79 NW15      29.58R
TOPEKA BILLARD LGT RAIN  47  45  93 S12       29.53F
TOPEKA FORBES  LGT RAIN  47  44  90 S13       29.53F
$$


USA.gov is the U.S. government's official web portal to all federal, state and local government web resources and services.